If you wish to contribute or participate in the discussions about articles you are invited to join SKYbrary as a registered user

 Actions

Mandalay International Airport

From SKYbrary Wiki

VYMD
Airport
ICAO: VYMD – IATA: MDL
Summary
Name Mandalay International Airport
Region Asia and Pacific
Territory Myanmar MM.gif
Location Tada-U, Mandalay Region
Serving Mandalay
Elevation 91.135 m
299 ft91.135 m
Coordinates 21° 56' 27.03" N, 96° 5' 23.54" E
Runways
Designator Length Width Surface ROPS
17/35 4268 m14,002.625 ft
61 m200.131 ft
CON yes/yes


METAR
Observation VYMD 252330Z 16012G20KT 6000 BKN020 FEW025CB OVC100 28/23 Q1004 NOSIG
Station MANDALAY
Date/Time 25 June 2019 23:30:00
Wind direction 160°
Wind speed 12 kts
Lowest cloud amount broken clouds
Temperature 28°C
Dew point 23°C
Humidity 74%
QNH 1004 hPa
Weather condition n/a

Mandalay International Airport, located 35 km18.898 nm
35,000 m
114,829.396 ft
south of Mandalay in Tada-U, Myanmar.

Climatology

Tropical Savanna climate (Köppen climate classification Aw)

Maps

Terrain

Loading map...

Airport Layout

Loading map...


Accidents & Serious Incidents at or in vicinity of VYMD

None on SKYbrary